OneWeb SL0021

operational
NORAD ID: 45134 Int'l Des: 2020-008 Owner: ONEWEB Country: UK Constellation: oneweb
LEOCIRCULARPOLARONEWEB_TYPE

Über OneWeb SL0021

Beschreibung wird geladen...

Live-Position

3D-Globus wird geladen...

Nächste Überflüge

Höhenverlauf

Altitude vs Time

uPlot chart will show altitude changes over time

Zweizeiliger Elementsatz

1 45134U 20008D 25304.82858844 .00000571 00000-0 15980-2 0 9996
2 45134 87.8773 81.8137 0001669 100.2010 259.9305 13.10376365278749
Epoch: 31. Okt. 2025 • Age: 15 hours

Aktueller Status

Höhe 1224.5 km
Geschwindigkeit 7.24 km/s
Subsatellitenpunkt 25.87°N, 118.43°W
Startdatum 6. Feb. 2020
Alter 5.7 years
Typ internet

Technische Details

Klassifizierung Payload
Masse 148.00 kg
Trockenmasse 140.00 kg
Gesamtmasse 148.00 kg
Länge 1.30 m
Durchmesser 1.00 m
Spannweite 5.00 m
Form Trapezoid+2 pan
Hersteller ONEWUS
Bus-Typ ARROW
Phasenstatus In Orbit
Besitzer/Staat ONEWEB/UK

Große Konstellationen

Loading constellations...